Dalzell, IL

2:31 PM CST on February 11, 2016 (GMT -0600)
Illinois Valley Regional-Duncan

Weather History for KVYS - May, 2012

Change the Weather History Date:

Monday, May 28, 2012

  Actual Average Record
Temperature  
Mean Temperature 80 °F -  
Max Temperature 90 °F 76 °F 95 °F (2006)
Min Temperature 69 °F 53 °F 33 °F (1992)
Cooling Degree Days 14    
Growing Degree Days 30 (Base 50)    
Moisture  
Dew Point 63 °F    
Average Humidity 55    
Maximum Humidity 81    
Minimum Humidity 41    
Precipitation  
Precipitation 0.13 in - - ()
Sea Level Pressure  
Sea Level Pressure 29.78 in    
Wind  
Wind Speed 14 mph (SW)    
Max Wind Speed 28 mph    
Max Gust Speed 36 mph    
Visibility 10 miles    
Events Rain , Thunderstorm    
Averages and records for this station are not official NWS values.
T = Trace of Precipitation, MM = Missing Value Source: NWS Daily Summary

Daily Weather History Graph

Daily Weather History Graph

Search for Another Location

Airport or City:

Trip Planner

Search our weather history database for the weather conditions in past years. The results will help you decide how hot, cold, wet, or windy it might be!

Date:

Astronomy

May. 28, 2012 Rise Set
Actual Time 5:27 AM CDT 8:20 PM CDT
Civil Twilight 4:54 AM CDT 8:53 PM CDT
Nautical Twilight 4:13 AM CDT 9:35 PM CDT
Astronomical Twilight 3:25 AM CDT 10:23 PM CDT
Moon 12:41 PM CDT (5/28) 12:55 AM CDT (5/28)
Length of Visible Light 15h 59m
Length of Day
14h 53m
Waxing Crescent, 49% of the Moon is Illuminated
May 28
Waxing Crescent
May 28
First Quarter
Jun 4
Full
Jun 11
Last Quarter
Jun 19
New

Hourly Weather History & Observations

Time (CDT) Temp. Heat Index Dew Point Humidity Pressure Visibility Wind Dir Wind Speed Gust Speed Precip Events Conditions
12:15 AM 79.9 °F - 60.3 °F 51% 29.82 in 10.0 mi South 12.7 mph - N/A   Clear
12:35 AM 79.5 °F - 60.6 °F 52% 29.82 in 10.0 mi South 12.7 mph 17.3 mph N/A   Clear
12:55 AM 80.2 °F 81.3 °F 61.7 °F 53% 29.82 in 10.0 mi South 15.0 mph - N/A   Clear
1:15 AM 80.2 °F 81.2 °F 61.3 °F 52% 29.81 in 10.0 mi South 15.0 mph - N/A   Clear
1:35 AM 80.2 °F 81.3 °F 61.7 °F 53% 29.82 in 10.0 mi SSW 13.8 mph - N/A   Clear
1:55 AM 80.2 °F 81.4 °F 62.2 °F 54% 29.82 in 10.0 mi SSW 13.8 mph - N/A   Clear
2:15 AM 79.0 °F - 61.7 °F 55% 29.82 in 10.0 mi SSW 12.7 mph - N/A   Clear
2:35 AM 78.3 °F - 61.9 °F 57% 29.82 in 10.0 mi SSW 10.4 mph - N/A   Clear
2:55 AM 77.0 °F - 61.9 °F 59% 29.83 in 10.0 mi SSW 6.9 mph - N/A   Clear
3:15 AM 76.5 °F - 61.9 °F 61% 29.83 in 10.0 mi SSW 8.1 mph - N/A   Clear
3:35 AM 77.0 °F - 62.1 °F 60% 29.83 in 10.0 mi SSW 9.2 mph - N/A   Clear
3:55 AM 76.3 °F - 62.1 °F 61% 29.83 in 10.0 mi South 6.9 mph - N/A   Clear
4:15 AM 75.9 °F - 61.9 °F 62% 29.82 in 10.0 mi South 6.9 mph - N/A   Clear
4:35 AM 75.2 °F - 62.1 °F 64% 29.82 in 10.0 mi South 6.9 mph - N/A   Clear
4:55 AM 73.9 °F - 61.9 °F 66% 29.82 in 10.0 mi South 5.8 mph - N/A   Clear
5:15 AM 72.9 °F - 61.7 °F 68% 29.82 in 10.0 mi South 6.9 mph - N/A   Clear
5:35 AM 72.5 °F - 62.1 °F 70% 29.82 in 10.0 mi South 8.1 mph - N/A   Clear
5:55 AM 72.7 °F - 62.2 °F 70% 29.83 in 10.0 mi South 9.2 mph - N/A   Clear
6:15 AM 73.4 °F - 62.2 °F 68% 29.82 in 10.0 mi South 8.1 mph - N/A   Clear
6:35 AM 75.2 °F - 63.3 °F 66% 29.83 in 10.0 mi SSW 8.1 mph - N/A   Clear
6:55 AM 75.6 °F - 62.8 °F 64% 29.83 in 10.0 mi SSW 9.2 mph - N/A   Clear
7:15 AM 76.8 °F - 63.0 °F 62% 29.82 in 10.0 mi SSW 10.4 mph - N/A   Clear
7:35 AM 78.1 °F - 63.0 °F 60% 29.82 in 10.0 mi SSW 11.5 mph - N/A   Clear
7:55 AM 80.2 °F 81.8 °F 63.7 °F 57% 29.82 in 10.0 mi SSW 15.0 mph - N/A   Clear
8:15 AM 80.6 °F 81.8 °F 62.8 °F 54% 29.81 in 10.0 mi SSW 18.4 mph 21.9 mph N/A   Clear
8:35 AM 81.7 °F 82.9 °F 62.8 °F 53% 29.81 in 10.0 mi SSW 15.0 mph - N/A   Clear
8:55 AM 81.3 °F 82.5 °F 62.6 °F 53% 29.81 in 10.0 mi SW 18.4 mph 24.2 mph N/A   Clear
9:15 AM 82.6 °F 83.6 °F 62.8 °F 51% 29.81 in 10.0 mi SSW 16.1 mph - N/A   Clear
9:35 AM 84.6 °F 85.6 °F 63.7 °F 49% 29.82 in 10.0 mi SW 13.8 mph 19.6 mph N/A   Clear
9:55 AM 85.3 °F 86.1 °F 63.0 °F 47% 29.82 in 10.0 mi SW 19.6 mph 26.5 mph N/A   Clear
10:15 AM 86.5 °F 87.3 °F 62.6 °F 45% 29.81 in 10.0 mi SSW 19.6 mph 25.3 mph N/A   Clear
10:35 AM 85.6 °F 86.1 °F 61.9 °F 45% 29.80 in 10.0 mi SSW 16.1 mph - N/A   Clear
10:55 AM 88.0 °F 88.1 °F 61.9 °F 41% 29.79 in 10.0 mi SW 20.7 mph 31.1 mph N/A   Clear
11:15 AM 87.8 °F 88.2 °F 61.9 °F 42% 29.79 in 10.0 mi SSW 23.0 mph - N/A   Clear
11:35 AM 87.3 °F 87.7 °F 62.1 °F 43% 29.79 in 10.0 mi SSW 21.9 mph 27.6 mph N/A   Clear
11:55 AM 87.3 °F 87.5 °F 61.7 °F 42% 29.78 in 10.0 mi SSW 25.3 mph 31.1 mph N/A   Clear
12:15 PM 86.5 °F 87.0 °F 62.1 °F 44% 29.77 in 10.0 mi SSW 20.7 mph 27.6 mph N/A   Clear
12:35 PM 86.2 °F 86.6 °F 62.1 °F 44% 29.75 in 10.0 mi SSW 21.9 mph 31.1 mph N/A   Clear
12:55 PM 86.0 °F 86.8 °F 63.1 °F 46% 29.75 in 10.0 mi SW 19.6 mph 26.5 mph N/A   Clear
1:15 PM 87.8 °F 89.1 °F 64.0 °F 45% 29.75 in 10.0 mi SW 19.6 mph 26.5 mph N/A   Clear
1:35 PM 88.0 °F 89.6 °F 64.8 °F 46% 29.75 in 10.0 mi SW 24.2 mph 32.2 mph N/A   Clear
1:55 PM 87.8 °F 88.8 °F 63.1 °F 44% 29.75 in 10.0 mi SW 25.3 mph 33.4 mph N/A   Clear
2:15 PM 89.1 °F 90.3 °F 63.7 °F 43% 29.74 in 10.0 mi SW 23.0 mph 31.1 mph N/A   Clear
2:35 PM 89.2 °F 90.6 °F 63.9 °F 43% 29.73 in 10.0 mi SW 20.7 mph 35.7 mph N/A   Scattered Clouds
2:55 PM 89.2 °F 90.6 °F 64.2 °F 43% 29.72 in 10.0 mi SW 19.6 mph 25.3 mph N/A   Scattered Clouds
3:15 PM 88.9 °F 90.0 °F 63.9 °F 43% 29.72 in 10.0 mi SSW 25.3 mph 32.2 mph N/A   Mostly Cloudy
3:35 PM 89.2 °F 90.2 °F 63.7 °F 42% 29.72 in 10.0 mi SW 24.2 mph 29.9 mph N/A   Scattered Clouds
3:55 PM 90.3 °F 91.5 °F 63.9 °F 41% 29.72 in 10.0 mi SW 24.2 mph 32.2 mph N/A   Mostly Cloudy
4:15 PM 89.4 °F 90.5 °F 63.3 °F 42% 29.72 in 10.0 mi SSW 27.6 mph 32.2 mph N/A   Mostly Cloudy
4:35 PM 88.9 °F 90.0 °F 63.9 °F 43% 29.72 in 10.0 mi SW 23.0 mph 28.8 mph N/A   Mostly Cloudy
4:55 PM 88.2 °F 89.6 °F 64.4 °F 45% 29.72 in 10.0 mi SW 18.4 mph 28.8 mph N/A   Scattered Clouds
5:15 PM 88.0 °F 89.6 °F 64.9 °F 46% 29.72 in 10.0 mi SW 21.9 mph 27.6 mph N/A   Scattered Clouds
5:35 PM 88.5 °F 90.5 °F 65.5 °F 46% 29.71 in 10.0 mi SW 19.6 mph 27.6 mph N/A   Scattered Clouds
5:55 PM 87.8 °F 89.4 °F 64.4 °F 46% 29.70 in 10.0 mi SW 20.7 mph 26.5 mph N/A   Scattered Clouds
6:15 PM 86.7 °F 88.4 °F 64.9 °F 48% 29.71 in 10.0 mi SW 23.0 mph 26.5 mph N/A   Scattered Clouds
6:35 PM 86.2 °F 88.2 °F 65.3 °F 50% 29.71 in 10.0 mi SW 15.0 mph 24.2 mph N/A   Scattered Clouds
6:55 PM 86.0 °F 87.9 °F 65.3 °F 50% 29.72 in 10.0 mi SSW 18.4 mph - N/A   Scattered Clouds
7:15 PM 85.3 °F 87.4 °F 65.8 °F 52% 29.71 in 10.0 mi SSW 16.1 mph - N/A   Clear
7:35 PM 84.7 °F 86.8 °F 65.8 °F 53% 29.72 in 10.0 mi SSW 17.3 mph - N/A   Scattered Clouds
7:55 PM 80.1 °F 80.8 °F 59.5 °F 49% 29.74 in 10.0 mi WNW 11.5 mph 23.0 mph N/A Rain , Thunderstorm Light Thunderstorms and Rain
8:15 PM 73.4 °F - 61.5 °F 66% 29.76 in 7.0 mi SSW 8.1 mph - 0.13 in Rain , Thunderstorm Light Thunderstorms and Rain
8:35 PM 73.4 °F - 61.2 °F 65% 29.76 in 10.0 mi West 9.2 mph - 0.13 in   Overcast
8:55 PM 73.6 °F - 58.6 °F 59% 29.78 in 10.0 mi West 16.1 mph 25.3 mph 0.13 in Thunderstorm Mostly Cloudy
9:15 PM 72.7 °F - 62.1 °F 69% 29.78 in 10.0 mi West 15.0 mph - N/A Thunderstorm Thunderstorm
9:35 PM 72.7 °F - 63.3 °F 72% 29.76 in 10.0 mi WSW 11.5 mph - N/A Rain Light Rain
9:55 PM 71.6 °F - 64.4 °F 78% 29.78 in 10.0 mi SSW 9.2 mph - N/A Thunderstorm Unknown
10:15 PM 71.6 °F - 63.7 °F 76% 29.78 in 10.0 mi SSW 11.5 mph - N/A Rain Light Rain
10:35 PM 70.5 °F - 64.0 °F 80% 29.78 in 10.0 mi SW 12.7 mph - N/A Thunderstorm Mostly Cloudy
10:55 PM 69.6 °F - 63.5 °F 81% 29.79 in 10.0 mi SW 11.5 mph - N/A   Mostly Cloudy
11:15 PM 70.0 °F - 63.0 °F 78% 29.79 in 10.0 mi SW 11.5 mph - N/A   Scattered Clouds
11:35 PM 70.3 °F - 62.8 °F 77% 29.79 in 10.0 mi WSW 11.5 mph - N/A Thunderstorm Unknown
11:55 PM 69.8 °F - 63.5 °F 80% 29.81 in 10.0 mi WSW 11.5 mph - N/A   Mostly Cloudy